VRSS-2

导读 | 豆包AI

VRSS-2卫星(委内瑞拉遥感卫星二号)由委内瑞拉(缩写VE)拥有,于2017年10月9日发射入轨,是中委航天合作的标志性项目。作为一颗光学遥感卫星,它主要服务于委内瑞拉的国土测绘、资源勘探、灾害监测与环境保护等领域,延续了VRSS系列卫星对地观测能力,为该国经济社会发展提供了稳定的空间信息支撑。

基本信息
目录编号:
42954
目录名称:
VRSS-2
国际标识:
2017-060A
轨道中心:
EARTH
卫星名称:
VRSS-2
卫星全名:
--
卫星状态:
在轨 (已飞行3125 天)
发射日期:
2017-10-09 UTC
国别 :
(VE)
星等 :
--
轨道信息
数据来源 国际轨道数据 AOE轨道数据
星历时间 2026-04-30T21:26:05+0800
5小时前
查看轨道信息
2026-04-26T06:00:00+0800
4天前
查看轨道信息
半长轴 7003.935km 7003.965km
偏心率 0.0015495 0.0015403
轨道倾角 97.656° 97.657°
近地点辐角 254.899° 270.528°
升交点赤经 160.424° 155.990°
平近点角 105.051° 187.502°
近地点 614.945km 615.039km
远地点 636.651km 636.617km
周期 97.224分钟 97.224分钟
每日圈数 14.81118 14.811083
详细信息
使用方式:
暂无
2D轨道图
3D轨道图
轨道高度分析图
轨道倾角分析图
轨道综合分析图
查看轨道综合分析图